GFSCGP_925_spd_021.txt.gz
Wind_Speed
19 9 17 25 21 14 16 15 19 22 22 19 8 6 8 7 9 8 9 7 9 10 10 26 31 28 24 17 12 6 5 2 5 7 9 6 2 3 8 7 10 7 11 8
14 24 22 20 17 18 18 20 23 22 17 8 18 22 8 9 10 9 11 10 6 11 14 14 25 27 24 19 11 9 4 2 2 5 5 7 10 6 7 8 10 7 6 7
26 20 20 20 21 19 19 21 21 18 21 14 5 5 6 8 6 9 10 7 15 20 16 13 14 25 23 16 14 8 8 2 2 5 5 9 6 6 4 7 11 2 4 5
22 20 18 23 21 18 19 18 21 22 17 6 2 5 3 5 9 9 7 9 14 14 15 12 12 15 22 17 13 10 8 3 4 4 6 9 6 6 3 5 9 3 5 6
17 24 25 24 22 24 21 16 17 20 15 5 6 3 5 3 8 8 3 4 12 17 17 15 13 20 22 18 16 13 9 5 2 3 5 7 8 7 3 5 5 4 3 4
21 12 20 28 22 23 22 13 17 18 14 11 7 8 7 5 5 1 5 11 14 13 14 14 19 26 21 21 18 13 12 6 1 3 6 10 6 5 6 7 8 7 4 5
21 24 22 22 22 24 17 14 10 5 5 6 7 5 8 8 7 8 10 11 10 14 15 14 14 10 22 22 19 15 14 9 3 5 7 10 8 6 7 7 6 6 6 8
15 14 29 25 30 18 20 16 10 7 4 5 7 5 8 11 8 10 15 13 13 14 14 13 13 14 22 20 20 16 16 12 6 9 9 9 7 6 6 6 6 9 9 10
18 18 17 27 20 25 14 18 14 6 3 4 5 5 7 6 8 10 12 13 13 13 13 13 11 19 23 22 20 13 17 13 13 9 9 8 6 6 6 6 6 10 11 11
7 5 21 22 20 19 27 7 8 2 8 6 5 4 6 9 9 9 11 11 9 10 11 11 11 18 24 24 20 13 14 15 13 10 9 9 5 5 4 6 9 11 14 14
18 5 7 19 23 24 14 16 7 7 6 6 1 6 8 14 9 14 11 12 14 12 12 11 10 21 27 24 20 14 13 15 14 11 10 12 7 5 4 8 8 11 15 16
30 5 11 16 18 25 18 14 8 8 5 4 6 5 7 9 11 15 13 14 12 11 10 9 11 18 24 25 21 17 13 18 14 13 11 10 9 8 8 10 9 13 13 13
21 19 4 7 11 13 25 19 9 6 5 8 6 6 5 8 10 15 15 14 14 12 11 10 12 10 18 23 25 20 15 19 17 18 14 10 10 9 8 10 9 10 12 14
20 15 24 13 9 10 26 16 16 9 5 7 10 4 6 8 9 10 14 16 15 15 14 11 13 9 19 23 26 23 18 19 19 22 17 11 11 8 7 12 10 12 13 16
5 24 18 25 20 11 22 21 21 17 9 14 9 9 12 12 11 11 18 17 15 14 15 14 14 11 17 22 26 27 22 21 21 25 20 14 12 10 8 12 11 9 11 15
10 13 23 18 20 23 15 28 22 19 14 7 13 13 8 12 11 9 18 20 19 17 17 16 15 15 13 22 25 28 24 25 23 26 23 18 14 11 7 11 11 12 14 18
8 6 13 21 20 13 14 17 23 20 13 14 11 7 4 5 13 11 12 21 21 18 18 18 16 16 19 25 29 29 26 28 23 27 24 21 16 13 11 13 12 16 16 16
12 9 4 12 15 18 9 11 18 18 15 9 8 14 8 7 8 11 10 13 20 19 19 18 15 17 25 32 32 29 28 30 25 27 27 23 19 17 14 12 12 14 19 16
16 8 5 9 16 3 10 15 23 18 12 15 9 12 14 10 8 4 9 14 16 19 18 18 27 26 31 33 34 33 30 31 27 24 29 27 22 21 18 16 16 15 17 19
13 12 5 2 8 19 9 7 10 18 14 10 11 11 10 9 8 5 9 10 13 16 15 18 27 28 32 34 37 34 30 31 29 26 30 30 26 25 22 19 19 17 14 15
5 4 8 4 4 5 11 6 6 9 8 8 13 9 9 7 7 7 8 8 15 16 17 28 31 29 31 36 38 29 31 27 31 28 28 32 30 29 25 22 23 19 15 15
6 4 3 3 3 4 7 4 6 6 5 8 9 10 9 9 9 7 5 9 16 15 17 29 25 24 30 37 35 28 27 34 31 28 28 34 32 31 29 26 25 22 19 18
2 3 3 6 4 1 7 3 7 7 7 8 8 6 12 10 9 9 6 8 15 15 16 28 27 25 29 35 36 29 32 33 32 29 29 35 34 33 32 30 28 25 23 17
6 13 4 8 11 17 12 10 9 1 8 6 8 9 11 12 11 10 8 7 10 11 13 25 25 22 24 30 33 34 38 33 34 30 29 36 37 33 34 32 31 30 27 22
3 9 11 5 9 21 19 22 19 10 11 7 5 8 12 11 10 9 8 8 11 13 13 28 25 24 26 29 30 34 38 36 34 31 29 35 36 35 36 35 34 32 30 29
6 3 3 4 19 4 15 19 19 13 14 10 18 6 4 10 11 10 9 9 9 9 17 21 25 27 28 31 30 35 37 37 34 30 30 32 30 33 32 32 26 28 26 25

GFSCGP_925_spd_024.txt.gz
Wind_Speed
10 9 16 23 25 18 11 6 11 18 17 6 10 15 16 11 6 8 10 11 11 6 7 21 29 32 28 23 20 14 12 8 1 3 5 5 6 8 7 7 10 8 8 11
7 27 22 20 12 13 13 13 19 20 18 5 14 22 20 8 7 10 13 9 6 7 12 12 21 26 28 24 18 15 12 8 3 2 3 6 10 7 6 7 9 7 3 8
25 12 21 20 16 15 16 18 20 19 14 9 8 11 13 10 8 6 7 8 10 18 17 13 14 22 27 23 19 16 14 7 4 1 2 6 4 4 3 5 10 2 2 4
17 19 19 19 19 16 18 21 19 20 11 8 7 6 6 6 7 5 7 6 10 14 14 14 11 16 25 22 19 17 13 8 5 1 3 5 5 4 3 6 7 4 3 5
11 21 24 22 26 24 21 14 15 14 13 3 20 2 8 4 5 9 6 8 6 12 17 16 14 20 24 24 20 19 12 8 5 3 2 5 6 3 3 3 4 4 3 7
19 9 23 27 17 21 23 7 8 9 7 8 15 5 14 5 7 4 0 7 11 11 10 10 17 23 23 23 23 18 12 8 3 2 3 6 4 6 5 5 5 5 1 5
14 21 14 13 22 17 13 9 5 4 6 8 8 5 13 8 8 8 9 8 10 12 14 15 13 10 20 25 22 19 14 10 6 4 3 4 7 6 6 5 5 4 1 4
14 11 25 22 20 20 24 14 6 7 4 4 7 7 11 8 8 10 11 13 12 12 12 14 13 13 20 25 23 20 17 13 10 7 3 4 5 5 5 4 2 5 6 6
16 17 6 24 18 20 10 17 13 3 2 2 5 5 6 5 6 12 10 13 13 12 12 14 10 16 22 26 24 21 19 14 14 8 4 3 4 5 5 6 5 6 6 5
4 5 17 14 17 22 21 5 8 0 8 7 4 3 6 5 8 10 11 11 11 9 11 11 12 15 24 28 23 18 21 17 15 10 6 3 4 3 4 5 7 8 7 6
11 4 5 16 18 27 7 19 8 7 7 8 5 9 7 11 12 15 15 14 15 14 13 13 11 17 26 27 21 19 21 19 15 11 9 5 4 3 3 5 8 8 8 7
23 5 9 17 4 19 18 9 21 11 7 3 6 9 6 9 16 17 14 15 12 14 14 12 12 16 21 25 22 21 22 19 17 14 12 7 7 5 6 8 9 8 7 7
6 16 4 8 2 5 20 19 13 7 4 8 9 8 3 2 15 12 16 12 13 13 11 11 10 11 17 23 25 22 19 21 18 14 12 11 9 7 6 7 9 7 7 8
7 5 28 17 12 8 7 19 14 14 7 6 14 5 4 8 10 8 10 14 15 16 16 13 11 11 18 22 26 24 20 24 21 19 15 14 10 8 8 10 12 12 10 9
7 8 19 29 17 4 6 18 20 17 14 15 8 11 9 11 14 17 16 13 14 14 14 15 14 12 16 19 24 26 23 25 24 22 17 15 10 10 10 10 10 9 8 13
6 6 6 20 29 26 16 9 24 21 10 8 13 7 9 15 15 13 17 18 18 18 17 17 16 15 14 22 25 28 26 26 28 25 20 17 12 11 10 10 11 12 13 15
4 5 6 20 20 21 19 23 10 15 19 12 8 8 8 6 11 19 17 20 20 19 18 18 18 17 21 25 29 27 29 27 32 29 23 20 16 11 8 13 14 17 18 17
7 2 3 6 6 11 13 12 15 15 18 17 8 10 15 11 15 13 18 21 19 19 19 18 16 18 25 28 31 33 31 32 33 31 26 22 19 14 14 15 17 20 18 17
17 7 4 3 14 5 11 9 13 8 9 13 17 10 12 9 7 4 19 21 22 21 20 18 28 30 28 31 35 35 32 33 31 30 30 25 23 19 17 16 18 20 18 19
16 15 4 4 6 13 6 6 9 7 10 10 11 13 11 8 7 5 16 18 18 20 17 18 26 27 28 29 35 32 29 29 28 31 33 29 26 23 20 17 19 21 18 18
2 5 11 5 4 5 5 7 5 13 10 6 13 12 9 9 8 9 13 18 19 20 19 24 27 29 32 32 34 29 30 30 34 34 33 32 29 27 23 21 21 21 19 18
4 5 2 4 5 2 19 6 5 5 5 10 10 9 11 9 8 8 12 17 17 18 16 25 24 24 30 35 35 28 30 35 37 34 34 34 32 30 27 25 25 22 20 20
2 4 5 5 3 12 6 11 9 9 6 4 12 8 14 11 9 10 9 14 16 18 17 28 26 23 27 35 36 30 31 36 38 35 33 36 35 33 32 29 28 25 23 22
5 7 3 11 2 20 13 22 21 20 13 14 7 11 11 13 10 10 9 9 14 15 16 25 22 19 23 32 34 36 36 39 36 34 35 36 36 35 35 33 32 29 26 24
4 3 7 9 11 19 8 22 19 22 18 17 15 2 14 11 10 11 8 12 13 16 19 26 23 23 27 33 31 33 39 38 34 33 34 34 35 37 35 35 36 35 31 30
4 3 1 3 12 7 14 19 18 20 20 15 11 12 9 11 5 9 10 12 13 14 21 20 23 25 27 31 31 35 39 41 35 30 30 31 30 31 30 30 29 32 32 30

GFSCGP_925_spd_030.txt.gz
Wind_Speed
7 7 19 27 20 9 15 9 10 14 2 3 8 9 18 12 7 11 11 11 12 12 4 8 20 28 31 35 35 29 25 20 16 11 9 5 4 7 8 8 8 9 10 9
6 27 20 12 18 19 9 14 21 16 6 4 11 13 17 15 12 11 13 14 11 4 3 3 16 21 27 36 34 29 23 20 14 9 4 2 5 5 6 7 6 10 8 6
26 18 13 18 15 15 19 20 18 17 5 5 6 10 16 13 7 7 10 11 9 9 8 7 8 18 24 31 33 27 22 17 12 7 3 2 4 5 4 3 5 5 3 3
19 22 18 17 24 19 22 17 14 14 3 5 4 6 12 12 11 7 10 8 8 0 5 8 9 13 23 31 28 24 20 15 11 6 2 3 4 3 2 5 5 4 2 4
12 18 28 23 21 19 12 10 12 9 5 1 3 4 7 5 9 11 10 9 6 4 8 11 12 20 25 29 26 22 18 14 10 5 2 4 1 0 2 3 5 3 2 5
9 6 20 23 13 19 5 6 4 2 3 4 10 7 6 5 9 8 7 4 4 6 9 10 15 22 25 25 23 21 16 12 9 5 1 0 3 2 4 5 4 5 2 4
5 10 1 8 8 8 10 9 1 3 1 5 7 8 15 9 9 12 12 7 5 8 9 14 16 13 20 25 24 19 15 12 9 6 2 4 2 1 4 5 5 4 2 1
8 4 12 8 9 10 17 12 7 7 4 4 7 8 7 18 22 9 6 3 8 9 7 13 12 14 20 25 25 19 15 13 10 7 4 4 1 3 4 5 3 4 4 2
9 10 5 19 9 17 6 15 9 4 2 1 4 5 7 7 8 7 7 6 9 9 8 11 10 15 19 25 26 20 16 12 11 7 5 3 2 2 4 4 3 3 4 3
5 2 12 15 12 17 14 11 7 4 7 5 4 3 5 7 9 6 6 9 7 7 9 10 10 13 20 27 25 19 17 14 12 8 5 4 2 2 3 3 5 4 4 5
3 1 4 11 18 14 5 9 3 6 5 5 1 6 7 8 7 9 8 8 9 12 12 12 10 15 22 27 24 21 17 14 13 10 6 4 2 2 3 4 6 6 6 6
4 2 5 15 7 18 20 9 9 9 7 3 3 6 4 7 7 8 8 8 7 8 10 11 11 14 18 23 23 22 19 16 15 11 7 5 3 4 5 6 5 6 6 7
9 4 2 4 3 4 22 13 12 5 5 15 4 5 2 3 6 5 7 9 9 10 9 8 9 10 14 20 24 22 20 18 15 12 10 8 5 5 5 7 6 5 7 8
9 4 4 6 2 5 17 19 17 7 5 7 20 5 5 7 7 6 7 7 8 10 11 10 8 9 13 19 25 23 21 19 17 14 12 9 8 7 7 9 9 7 8 9
6 4 3 10 13 9 1 18 20 20 13 6 5 15 6 10 11 9 7 9 10 11 12 13 12 10 11 17 23 24 23 21 19 16 14 11 9 9 8 9 9 9 9 8
6 4 6 5 12 9 10 7 20 24 20 13 6 9 8 7 6 6 12 12 12 13 13 13 12 11 11 18 23 25 25 24 22 19 16 13 11 11 9 7 6 6 9 11
2 4 5 4 10 8 8 21 11 10 15 15 15 15 5 4 7 9 9 14 16 15 14 15 16 15 18 22 27 26 27 26 24 21 17 15 14 12 9 7 6 10 9 11
6 3 2 4 4 5 7 8 13 11 8 17 12 7 10 9 11 10 11 16 14 13 14 13 12 14 21 24 28 31 27 26 27 23 20 17 16 15 11 9 8 10 10 12
9 4 3 2 2 5 1 6 5 4 11 6 8 13 7 9 4 5 9 11 19 18 17 16 24 25 24 29 32 32 28 26 27 26 23 21 19 16 16 14 11 8 9 12
8 10 4 2 2 6 2 17 12 8 6 11 13 10 9 8 7 7 12 10 10 9 10 14 23 23 27 28 34 31 27 26 24 28 28 24 22 19 19 18 15 11 10 12
4 4 8 6 3 4 11 19 12 7 5 17 12 12 14 10 9 16 13 12 15 15 16 23 24 25 28 30 33 27 26 26 32 30 30 26 23 21 20 20 18 15 14 14
3 2 3 3 4 4 14 7 7 7 9 12 13 13 14 16 15 6 12 16 13 13 14 23 21 22 27 35 33 26 28 36 31 29 30 28 25 24 21 21 19 17 17 16
3 4 2 3 2 3 4 3 5 4 11 12 16 17 14 16 14 9 11 11 14 15 15 26 23 22 25 33 34 28 29 35 33 30 30 30 28 26 24 23 22 20 18 17
1 3 3 2 6 14 17 8 6 13 13 17 15 17 15 15 15 11 8 10 12 13 14 23 22 18 21 31 34 34 34 37 35 31 32 31 30 28 26 25 24 24 22 19
1 4 2 4 5 15 2 11 13 20 18 20 21 18 14 12 12 9 7 9 12 14 15 24 22 22 25 30 30 31 36 38 35 33 31 32 32 31 28 27 27 27 26 24
1 2 1 1 3 7 13 14 19 15 18 20 20 22 20 11 11 6 8 8 12 12 16 16 19 19 23 29 29 34 38 41 36 29 29 31 30 31 30 29 25 26 26 25

GFSCGP_925_spd_033.txt.gz
Wind_Speed
19 13 25 29 29 13 18 20 22 17 7 8 16 17 20 20 16 18 19 18 19 18 17 9 3 10 17 19 24 29 28 25 20 15 9 8 9 9 9 9 10 9 9 10
10 28 31 24 21 24 23 23 23 14 12 7 16 20 18 18 19 17 20 20 19 17 11 1 3 10 16 20 25 28 24 24 19 14 10 6 6 6 6 7 8 8 9 7
27 37 22 23 21 25 29 29 24 19 4 8 10 22 19 14 13 16 17 17 16 14 10 6 8 12 16 21 25 24 22 21 16 13 9 6 5 5 4 4 4 5 5 3
22 27 24 23 28 23 26 24 23 17 8 12 3 17 19 18 20 16 16 13 9 5 3 7 10 13 19 24 23 22 21 18 14 12 8 6 4 3 2 2 3 4 3 4
18 18 28 26 30 26 22 15 17 15 12 12 17 10 18 5 18 23 18 13 6 0 4 9 11 17 21 24 22 20 18 15 13 11 7 4 4 3 1 2 4 4 3 6
17 10 22 31 18 23 12 12 12 7 9 13 17 13 25 13 18 14 14 11 1 4 7 9 13 20 23 22 20 19 17 14 12 10 6 5 5 3 1 2 2 3 4 6
16 17 3 14 22 20 23 14 8 9 9 11 11 12 19 9 13 16 17 10 2 5 9 12 16 17 22 21 20 18 16 14 12 9 5 5 4 2 1 2 2 1 2 4
14 10 21 17 16 19 27 23 10 14 13 9 13 11 9 17 23 22 16 11 6 9 10 13 18 18 21 21 20 17 15 14 12 8 5 5 3 1 1 1 1 1 1 2
11 16 11 19 13 24 23 22 17 10 1 4 5 7 13 15 14 12 16 11 8 11 13 16 17 20 21 20 19 17 15 13 11 7 6 4 3 1 1 2 2 1 2 1
6 6 12 19 20 23 20 22 12 11 13 9 4 7 9 9 14 10 10 11 9 12 14 16 17 19 20 20 18 15 14 13 12 8 6 4 3 1 2 3 3 3 2 4
10 6 10 18 20 23 11 22 8 10 7 7 4 6 8 16 15 15 13 10 13 15 16 17 17 20 20 19 18 15 13 12 11 8 6 4 3 3 3 5 4 4 3 5
7 6 7 24 14 19 22 17 22 11 9 10 5 6 1 9 3 3 6 9 13 14 16 17 18 20 19 19 18 16 14 12 10 9 6 4 4 4 5 5 4 5 5 6
7 5 11 7 8 14 28 22 22 9 4 16 11 3 1 3 5 2 7 11 12 15 16 16 17 16 18 20 19 17 14 12 10 9 7 5 5 4 7 5 5 5 7 6
7 4 10 10 6 1 21 24 21 20 13 9 16 9 13 6 7 0 5 12 13 14 16 16 16 16 19 21 20 17 15 12 11 10 9 6 6 6 8 6 6 5 6 8
2 4 7 15 14 10 5 21 26 25 20 16 10 19 21 15 14 5 7 12 15 15 17 17 18 16 17 20 19 17 15 14 13 11 11 8 7 8 9 7 7 7 6 8
3 3 10 10 11 9 10 8 21 25 22 18 10 18 19 20 8 4 7 13 16 17 17 18 18 18 17 21 20 18 16 15 14 12 12 10 8 9 8 7 6 7 8 8
2 0 5 10 2 6 10 15 12 13 18 23 20 13 5 9 12 10 10 15 18 19 18 20 21 19 21 23 22 20 18 16 15 14 12 11 9 9 9 8 7 7 8 9
4 2 2 3 1 10 2 10 12 13 9 21 21 18 17 21 19 13 9 15 17 18 19 17 17 19 24 23 22 20 19 19 17 15 13 12 12 10 10 10 9 9 9 9
14 3 2 3 6 3 6 10 6 5 5 12 8 12 17 15 12 17 12 14 19 20 20 19 27 28 25 25 24 22 20 20 18 17 15 15 14 13 11 11 10 7 10 9
14 7 4 2 4 13 9 14 5 2 7 14 12 11 10 11 13 16 10 15 15 16 14 17 26 25 26 26 26 24 22 21 20 19 18 16 16 14 13 12 12 9 9 10
6 4 9 6 3 2 13 15 2 9 3 15 13 12 12 8 11 14 19 12 16 18 19 24 27 28 28 28 27 26 24 23 22 20 19 18 17 15 13 14 11 12 11 12
5 6 5 4 4 4 19 6 2 6 9 12 13 12 15 16 20 22 18 16 12 19 20 25 23 25 28 29 30 27 26 25 22 21 20 19 18 16 14 15 13 12 12 12
2 2 1 3 2 6 11 4 4 8 11 13 15 16 16 17 18 18 17 14 13 17 18 27 25 25 27 30 32 29 28 26 24 22 21 21 19 17 16 16 15 14 13 12
1 1 2 3 5 8 7 8 11 13 11 15 16 17 17 17 18 17 18 13 13 15 16 25 25 22 25 31 32 33 31 29 27 25 22 21 21 19 17 16 16 15 15 13
2 4 4 2 6 11 5 13 15 20 16 17 18 17 17 17 18 16 15 13 13 14 18 25 23 23 28 32 32 29 30 31 28 25 23 22 22 23 20 18 18 17 17 16
1 2 2 2 3 3 13 15 19 16 20 19 21 22 20 17 17 16 14 11 12 14 20 20 23 23 26 30 32 31 31 33 31 26 24 24 24 23 21 20 15 20 18 21